Date String (YYYY-MM-DD hh:mm:ss) UTC,Instrument flags,Ambient pressure (hPa),Sample flow (lpm),Bypass flow (lpm),Sample temperature (°C),Ambient temperature (°C),ASC tube jacket temperature (°C),LED temperature (°C),Box temperature (°C),Sample RH (%),Span deviation,Mass concentration (μg/m³),Mass concentration (μg/m³),Mass concentration (μg/m³)
DateTimeUTC,F1_M11,P_M11,Q1_M11,Q2_M11,T1_M11,T2_M11,T3_M11,T4_M11,T5_M11,U1_M11,ZSPAN_M11,X0_M11,X2_M11,X1_M11
2023-05-16 14:00:00,,0835.5,5.00,0.00,28.6,27.1,00.0,36.9,30.2,29.2,0000.4,0010.28,0005.80,0005.22
2023-05-16 14:01:00,,0835.6,5.00,0.00,28.6,27.1,00.0,36.9,30.2,29.4,0000.2,0010.28,0006.01,0005.39
2023-05-16 14:02:00,,0835.6,5.00,0.00,28.6,27.2,00.0,36.9,30.3,29.3,0000.1,0010.54,0006.22,0005.57
2023-05-16 14:03:00,,0835.6,5.00,0.00,28.6,27.2,00.0,36.9,30.3,29.2,0000.3,0010.65,0006.43,0005.78
2023-05-16 14:04:00,,0835.5,5.00,0.00,28.6,27.2,00.0,36.9,30.3,29.4,0000.1,0010.96,0006.56,0005.87
2023-05-16 14:05:00,,0835.5,4.99,0.00,28.6,27.2,00.0,36.9,30.3,29.3,-000.1,0011.03,0006.60,0005.91
2023-05-16 14:06:00,,0835.5,5.00,0.00,28.6,27.2,00.0,36.9,30.3,29.3,-000.6,0011.17,0006.66,0005.94
2023-05-16 14:07:00,,0835.6,4.99,0.00,28.7,27.2,00.0,36.9,30.3,29.6,-000.7,0011.42,0006.76,0005.98
2023-05-16 14:08:00,,0835.5,4.99,0.00,28.7,27.2,00.0,36.9,30.3,29.7,-000.5,0011.20,0006.82,0006.04
2023-05-16 14:09:00,,0835.5,5.00,0.00,28.7,27.2,00.0,36.9,30.3,29.7,-000.1,0011.16,0006.88,0006.11
2023-05-16 14:10:00,,0835.5,5.00,0.00,28.7,27.2,00.0,37.0,30.3,29.6,0000.1,0011.26,0006.92,0006.14
2023-05-16 14:11:00,,0835.5,5.00,0.00,28.7,27.2,00.0,37.0,30.3,29.6,-000.2,0011.23,0006.92,0006.15
2023-05-16 14:12:00,,0835.4,5.01,0.00,28.7,27.2,00.0,37.0,30.3,29.4,-000.7,0011.10,0006.89,0006.13
2023-05-16 14:13:00,,0835.5,5.00,0.00,28.7,27.3,00.0,37.0,30.3,28.7,-000.2,0010.69,0006.83,0006.09
2023-05-16 14:14:00,,0835.5,5.00,0.00,28.7,27.3,00.0,37.0,30.4,28.0,-000.1,0011.03,0006.75,0006.02
2023-05-16 14:15:00,,0835.5,4.99,0.00,28.7,27.3,00.0,37.0,30.4,27.7,-000.7,0011.31,0006.64,0005.91
2023-05-16 14:16:00,,0835.5,5.00,0.00,28.8,27.3,00.0,37.0,30.4,27.9,-000.8,0011.54,0006.59,0005.80
2023-05-16 14:17:00,,0835.5,5.01,0.00,28.8,27.3,00.0,37.0,30.4,27.4,-000.5,0011.47,0006.49,0005.68
2023-05-16 14:18:00,,0835.5,5.01,0.00,28.8,27.3,00.0,37.0,30.4,25.5,-000.5,0011.35,0006.30,0005.51
2023-05-16 14:19:00,,0835.5,4.98,0.00,28.8,27.3,00.0,37.0,30.4,26.0,-000.5,0011.33,0006.12,0005.34
2023-05-16 14:20:00,,0835.6,5.01,0.00,28.8,27.3,00.0,37.0,30.4,27.5,0000.0,0011.42,0005.94,0005.14
2023-05-16 14:21:00,,0835.5,5.01,0.00,28.8,27.3,00.0,37.1,30.4,29.6,0000.0,0011.94,0005.87,0005.07
2023-05-16 14:22:00,,0835.5,5.00,0.00,28.8,27.3,00.0,37.1,30.4,29.3,0000.0,0012.37,0005.83,0005.01
2023-05-16 14:23:00,,0835.5,4.99,0.00,28.8,27.3,00.0,37.1,30.5,29.6,0000.0,0012.44,0005.81,0004.98
2023-05-16 14:24:00,,0835.5,5.00,0.00,28.8,27.3,00.0,37.1,30.5,29.8,0000.0,0012.48,0005.80,0004.97
2023-05-16 14:25:00,,0835.5,5.00,0.00,28.8,27.3,00.0,37.1,30.5,30.4,0000.0,0012.33,0005.80,0004.95
2023-05-16 14:26:00,,0835.5,4.99,0.00,28.8,27.3,00.0,37.1,30.5,29.9,0000.3,0012.29,0005.84,0004.97
2023-05-16 14:27:00,,0835.5,5.00,0.00,28.8,27.4,00.0,37.1,30.5,29.9,0000.6,0012.08,0005.83,0004.98
2023-05-16 14:28:00,,0835.5,5.00,0.00,28.9,27.4,00.0,37.1,30.5,29.7,0001.3,0012.12,0005.85,0005.01
2023-05-16 14:29:00,,0835.5,5.00,0.00,28.9,27.4,00.0,37.1,30.5,30.0,0001.2,0012.22,0005.91,0005.06
2023-05-16 14:30:00,,0835.5,5.00,0.00,28.9,27.4,00.0,37.1,30.5,30.1,0000.9,0012.01,0006.01,0005.13
2023-05-16 14:31:00,,0835.5,5.01,0.00,28.9,27.4,00.0,37.2,30.5,29.9,0001.0,0011.99,0006.10,0005.21
2023-05-16 14:32:00,,0835.6,5.01,0.00,28.9,27.4,00.0,37.2,30.5,29.5,0001.1,0012.63,0006.10,0005.19
2023-05-16 14:33:00,,0835.5,5.00,0.00,28.9,27.4,00.0,37.2,30.5,29.6,0001.3,0012.60,0006.00,0005.10
2023-05-16 14:34:00,,0835.5,5.00,0.00,28.9,27.4,00.0,37.2,30.5,29.8,0001.7,0012.60,0005.90,0005.02
2023-05-16 14:35:00,,0835.5,5.00,0.00,28.9,27.4,00.0,37.2,30.5,29.3,0000.8,0012.77,0005.83,0004.92
2023-05-16 14:36:00,,0835.5,5.00,0.00,28.9,27.4,00.0,37.2,30.5,29.4,0000.0,0013.02,0005.77,0004.84
2023-05-16 14:37:00,,0835.5,5.00,0.00,28.9,27.4,00.0,37.2,30.5,29.9,0000.0,0012.72,0005.73,0004.77
2023-05-16 14:38:00,,0835.5,5.00,0.00,28.9,27.4,00.0,37.2,30.5,29.6,0000.0,0012.86,0005.69,0004.73
2023-05-16 14:39:00,,0835.5,5.00,0.00,28.9,27.4,00.0,37.2,30.5,29.0,0000.0,0013.12,0005.63,0004.67
2023-05-16 14:40:00,,0835.5,5.00,0.00,28.9,27.4,00.0,37.2,30.5,28.8,0000.0,0013.12,0005.58,0004.60
2023-05-16 14:41:00,,0835.5,5.00,0.00,28.9,27.4,00.0,37.2,30.5,27.4,0000.0,0013.56,0005.45,0004.50
2023-05-16 14:42:00,,0835.5,5.00,0.00,29.0,27.5,00.0,37.2,30.6,28.5,0000.0,0014.18,0005.37,0004.40
2023-05-16 14:43:00,,0835.5,5.00,0.00,29.0,27.5,00.0,37.3,30.6,29.3,0000.0,0013.93,0005.32,0004.32
2023-05-16 14:44:00,,0835.5,5.00,0.00,29.0,27.5,00.0,37.3,30.6,29.8,0000.0,0013.12,0005.33,0004.30
2023-05-16 14:45:00,,0835.5,5.01,0.00,29.0,27.5,00.0,37.3,30.6,29.6,0000.0,0013.45,0005.35,0004.28
2023-05-16 14:46:00,,0835.4,5.00,0.00,29.0,27.5,00.0,37.3,30.6,30.3,0000.0,0013.66,0005.30,0004.27
2023-05-16 14:47:00,,0835.4,4.99,0.00,29.0,27.5,00.0,37.3,30.6,30.1,0000.0,0013.23,0005.30,0004.29
2023-05-16 14:48:00,,0835.4,4.99,0.00,29.0,27.5,00.0,37.3,30.6,29.4,0000.0,0013.03,0005.25,0004.28
2023-05-16 14:49:00,,0835.3,5.00,0.00,29.0,27.5,00.0,37.3,30.6,29.6,0000.0,0012.75,0005.20,0004.24
2023-05-16 14:50:00,,0835.3,5.00,0.00,29.0,27.5,00.0,37.3,30.6,27.7,0000.0,0012.81,0005.13,0004.20
2023-05-16 14:51:00,,0835.4,5.00,0.00,29.0,27.6,00.0,37.3,30.6,25.9,0000.0,0012.86,0005.10,0004.14
2023-05-16 14:52:00,,0835.4,5.00,0.00,29.0,27.6,00.0,37.3,30.7,26.9,0000.0,0013.58,0005.12,0004.11
2023-05-16 14:53:00,,0835.4,5.00,0.00,29.1,27.6,00.0,37.3,30.7,29.7,0000.0,0014.00,0005.17,0004.14
2023-05-16 14:54:00,,0835.3,5.00,0.00,29.1,27.6,00.0,37.3,30.7,29.8,0000.0,0014.18,0005.18,0004.18
2023-05-16 14:55:00,,0835.3,4.99,0.00,29.1,27.6,00.0,37.4,30.7,29.8,0000.0,0014.93,0005.12,0004.18
2023-05-16 14:56:00,,0835.3,4.99,0.00,29.1,27.6,00.0,37.4,30.7,29.9,0000.0,0015.11,0005.13,0004.17
2023-05-16 14:57:00,,0835.2,5.00,0.00,29.1,27.6,00.0,37.4,30.7,30.0,0000.0,0015.28,0005.16,0004.15
2023-05-16 14:58:00,,0835.2,5.00,0.00,29.1,27.6,00.0,37.4,30.7,30.1,0000.0,0016.03,0005.13,0004.12
2023-05-16 14:59:00,,0835.3,5.01,0.00,29.1,27.6,00.0,37.4,30.7,29.9,0000.0,0016.05,0005.12,0004.12
